THOR BURNER 2 R/B, 2741

Orbit data source: Space-Track

THOR BURNER 2 R/B, 2741 is space debris in SSO originally from a launch on Wed, 08 Feb 1967 UTC launched from the Air Force Western Test Range (AFWTR). Debris objects in space refer to the collection of defunct objects orbiting the Earth. Examples of debris include non-operational satellites, rocket bodies, and fragments generated from explosions, collisions, or faulty payload assembly.

Loading next visibility...
Identifier
2741, 1967-010B
Orbit
SSO
Country
Flag of USUS
Related business
Manufacturer
Thiokol/TE
Mission
Spacecraft
Bus & Motor
STAR 37, Unknown motor
Mass
136 kg wet, 136 kg dry
Launch date (UTC)
1967-02-08 (59 years ago)
Launch vehicle
Unknown
Launch site
Air Force Western Test Range (AFWTR)
Object type
Payload
Rocket body
Debris
Shape & HBR
Unknown
Radar Cross Section
Large (>1 m²)

Expand to show TLE details & history
Last TLE update: 12 hours ago

TLE from 12 hours ago
0 THOR BURNER 2 R/B
1  2741U 67010B   26167.85413917  .00000108  00000-0  60405-4 0  9996
2  2741  98.9744 121.7018 0051429 286.6853  72.8687 14.29250318 85226
Epoch: 2026-06-16T20:29Z
TLE epoch observation values (Epoch: 2026-06-16T20:29:57.624Z)
Latitude
0.00005°
Longitude
-90.90851°
Altitude
786.462 km
Speed
7.466 km/s
True Right ascension
08h 06m 48s
True Declination
0° 00' 00"
Sunlit
Object was in daylight at epoch
Visualization orbit readout
Latitude
Unknown
Longitude
Unknown
Altitude
Unknown
Speed
Unknown
Apparent Right ascension
Unknown
Apparent Declination
Unknown
Sunlit
N/A
Visualization observer readout
Local Sidereal Time
19:26:40
Azimuth
Unknown
Elevation
Unknown
Doppler factor
Unknown
Orbital elements
Apogee altitude
828.269 km
Perigee altitude
754.525 km
Semi-major axis
7,169.534 km
Eccentricity
0.00514
Inclination
98.9744°
RAAN
121.7018°
Arg. of periapsis
286.6853°
True anomaly
73.43294°
Mean anomaly
72.8687°
Eccentric anomaly
73.15072°
Mean motion
3.57525 °/min
Orbital period
100.69 mins
BSTAR
0.000060405
Loading maneuver chart data...
Computing Atmospheric mass density...
Loading historical data...
Loading historical data...
Loading historical data...
Loading historical data...
Loading historical data...
Loading historical data...
Loading historical data...
Other satellites on launch #10 in the year 1967 (1967-02-08 UTC)

Documentation

Showing up to 5 results
|